| time (UTC) | temp F | wind direction | speed MPH | gust MPH | rain 1hr in | rain 24hr in | rain mn in | humidity % | barometer mb |
| 20260901135517 | 73 | 248 | 10.0 | 17.0 | 0.00 | 0.00 | 0.00 | 57 | 1020.9 |
| 20260901134538 | 73 | 225 | 7.0 | 13.0 | 0.00 | 0.00 | 0.00 | 59 | 1020.7 |
| 20260901133519 | 73 | 203 | 7.0 | 12.0 | 0.00 | 0.00 | 0.00 | 59 | 1020.8 |
| 20260901132540 | 73 | 225 | 7.0 | 12.0 | 0.00 | 0.00 | 0.00 | 62 | 1020.8 |
| 20260901131600 | 72 | 225 | 6.0 | 13.0 | 0.00 | 0.00 | 0.00 | 62 | 1021.0 |
| 20260901130517 | 72 | 225 | 7.0 | 16.0 | 0.00 | 0.00 | 0.00 | 63 | 1021.0 |
| 20260901125517 | 72 | 248 | 8.0 | 16.0 | 0.00 | 0.00 | 0.00 | 63 | 1021.1 |
| 20260901124538 | 72 | 203 | 6.0 | 13.0 | 0.00 | 0.00 | 0.00 | 61 | 1021.1 |
| 20260901123517 | 73 | 225 | 6.0 | 11.0 | 0.00 | 0.00 | 0.00 | 59 | 1021.2 |
| 20260901122518 | 73 | 225 | 6.0 | 10.0 | 0.00 | 0.00 | 0.00 | 57 | 1021.1 |
| 20260901121517 | 73 | 203 | 6.0 | 11.0 | 0.00 | 0.00 | 0.00 | 57 | 1021.2 |
| 20260901120701 | 72 | 248 | 7.0 | 12.0 | 0.00 | 0.00 | 0.00 | 58 | 1021.2 |
| 20260901115518 | 73 | 225 | 6.0 | 13.0 | 0.00 | 0.00 | 0.00 | 55 | 1021.1 |
| 20260901114517 | 73 | 225 | 6.0 | 12.0 | 0.00 | 0.00 | 0.00 | 54 | 1021.1 |
| 20260901113517 | 73 | 248 | 5.0 | 12.0 | 0.00 | 0.00 | 0.00 | 54 | 1021.1 |
| 20260901112518 | 74 | 225 | 5.0 | 9.0 | 0.00 | 0.00 | 0.00 | 53 | 1021.2 |
| 20260901111516 | 73 | 315 | 4.0 | 9.0 | 0.00 | 0.00 | 0.00 | 54 | 1021.2 |
| 20260901110517 | 73 | 270 | 6.0 | 12.0 | 0.00 | 0.00 | 0.00 | 51 | 1021.3 |
| 20260901105518 | 72 | 293 | 4.0 | 9.0 | 0.00 | 0.00 | 0.00 | 54 | 1021.3 |
| 20260901104538 | 71 | 225 | 5.0 | 9.0 | 0.00 | 0.00 | 0.00 | 61 | 1021.4 |
| 20260901103518 | 70 | 248 | 3.0 | 8.0 | 0.00 | 0.00 | 0.00 | 60 | 1021.4 |
| 20260901102516 | 70 | 248 | 5.0 | 9.0 | 0.00 | 0.00 | 0.00 | 59 | 1021.5 |
| 20260901101540 | 70 | 248 | 4.0 | 8.0 | 0.00 | 0.00 | 0.00 | 63 | 1021.6 |
| 20260901100538 | 70 | 248 | 6.0 | 11.0 | 0.00 | 0.00 | 0.00 | 63 | 1021.6 |
| 20260901095538 | 71 | 248 | 5.0 | 9.0 | 0.00 | 0.00 | 0.00 | 64 | 1021.6 |
| 20260901094518 | 71 | 248 | 5.0 | 11.0 | 0.00 | 0.00 | 0.00 | 63 | 1021.6 |
| 20260901093518 | 71 | 225 | 3.0 | 8.0 | 0.00 | 0.00 | 0.00 | 65 | 1021.8 |
| 20260901092539 | 70 | 293 | 3.0 | 7.0 | 0.00 | 0.00 | 0.00 | 67 | 1021.8 |
| 20260901091516 | 69 | 248 | 2.0 | 7.0 | 0.00 | 0.00 | 0.00 | 69 | 1021.8 |
| 20260901090516 | 68 | 248 | 2.0 | 5.0 | 0.00 | 0.00 | 0.00 | 70 | 1021.8 |
| 20260901085516 | 68 | 293 | 1.0 | 3.0 | 0.00 | 0.00 | 0.00 | 72 | 1021.7 |
| 20260901084516 | 67 | 315 | 2.0 | 4.0 | 0.00 | 0.00 | 0.00 | 71 | 1021.6 |
| 20260901083517 | 67 | 315 | 2.0 | 5.0 | 0.00 | 0.00 | 0.00 | 71 | 1021.6 |
| 20260901082516 | 67 | 270 | 1.0 | 4.0 | 0.00 | 0.00 | 0.00 | 71 | 1021.6 |
| 20260901081518 | 67 | 315 | 3.0 | 6.0 | 0.00 | 0.00 | 0.00 | 71 | 1021.5 |
| 20260901080538 | 67 | 293 | 2.0 | 5.0 | 0.00 | 0.00 | 0.00 | 71 | 1021.3 |
| 20260901075516 | 66 | 0.0 | 0.0 | 0.00 | 0.00 | 0.00 | 72 | 1021.2 | |
| 20260901074516 | 64 | 0.0 | 1.0 | 0.00 | 0.00 | 0.00 | 76 | 1021.2 | |
| 20260901073516 | 62 | 293 | 1.0 | 4.0 | 0.00 | 0.00 | 0.00 | 80 | 1021.2 |
| 20260901072516 | 61 | 338 | 1.0 | 4.0 | 0.00 | 0.00 | 0.00 | 84 | 1021.2 |
| 20260901071518 | 59 | 338 | 1.0 | 3.0 | 0.00 | 0.00 | 0.00 | 88 | 1021.2 |
| 20260901070518 | 57 | 315 | 2.0 | 4.0 | 0.00 | 0.00 | 0.00 | 90 | 1021.2 |
| 20260901065516 | 56 | 315 | 1.0 | 3.0 | 0.00 | 0.00 | 0.00 | 90 | 1021.2 |
| 20260901064516 | 56 | 338 | 1.0 | 3.0 | 0.00 | 0.00 | 0.00 | 90 | 1021.1 |
| 20260901063518 | 55 | 338 | 1.0 | 3.0 | 0.00 | 0.00 | 0.00 | 91 | 1021.0 |
| 20260901062516 | 55 | 0.0 | 0.0 | 0.00 | 0.00 | 0.00 | 91 | 1020.9 | |
| 20260901061518 | 55 | 0.0 | 0.0 | 0.00 | 0.00 | 0.00 | 91 | 1020.8 | |
| 20260901060516 | 55 | 0.0 | 0.0 | 0.00 | 0.00 | 0.00 | 90 | 1020.8 | |
| 20260901055518 | 55 | 0.0 | 0.0 | 0.00 | 0.00 | 0.00 | 90 | 1020.7 | |
| 20260901054516 | 55 | 0.0 | 0.0 | 0.00 | 0.00 | 0.00 | 90 | 1020.7 | |
| 20260901053516 | 55 | 0.0 | 0.0 | 0.00 | 0.00 | 0.00 | 89 | 1020.6 | |
| 20260901052516 | 55 | 0.0 | 1.0 | 0.00 | 0.00 | 0.00 | 89 | 1020.6 | |
| 20260901051516 | 55 | 0.0 | 0.0 | 0.00 | 0.00 | 0.00 | 89 | 1020.5 | |
| 20260901050516 | 55 | 0.0 | 0.0 | 0.00 | 0.00 | 0.00 | 89 | 1020.5 | |
| 20260901045517 | 55 | 0.0 | 0.0 | 0.00 | 0.00 | 0.00 | 89 | 1020.5 | |
| 20260901044516 | 55 | 0.0 | 2.0 | 0.00 | 0.00 | 0.00 | 88 | 1020.4 | |
| 20260901043516 | 55 | 0.0 | 0.0 | 0.00 | 0.00 | 0.00 | 88 | 1020.4 | |
| 20260901042516 | 55 | 0.0 | 1.0 | 0.00 | 0.00 | 0.00 | 87 | 1020.3 | |
| 20260901041539 | 56 | 0.0 | 0.0 | 0.00 | 0.00 | 0.00 | 87 | 1020.3 | |
| 20260901040518 | 56 | 0.0 | 0.0 | 0.00 | 0.00 | 0.00 | 87 | 1020.2 | |
| 20260901035516 | 56 | 0.0 | 0.0 | 0.00 | 0.00 | 0.00 | 87 | 1020.2 | |
| 20260901034518 | 57 | 315 | 1.0 | 3.0 | 0.00 | 0.00 | 0.00 | 86 | 1020.2 |
| 20260901033539 | 57 | 315 | 2.0 | 5.0 | 0.00 | 0.00 | 0.00 | 86 | 1020.1 |
| 20260901032516 | 57 | 315 | 1.0 | 2.0 | 0.00 | 0.00 | 0.00 | 85 | 1020.1 |
| 20260901031518 | 57 | 0.0 | 1.0 | 0.00 | 0.00 | 0.00 | 85 | 1020.1 | |
| 20260901030538 | 57 | 315 | 2.0 | 5.0 | 0.00 | 0.00 | 0.00 | 84 | 1020.0 |
| 20260901025518 | 57 | 338 | 2.0 | 5.0 | 0.00 | 0.00 | 0.00 | 84 | 1020.0 |
| 20260901024516 | 58 | 315 | 2.0 | 4.0 | 0.00 | 0.00 | 0.00 | 83 | 1019.9 |
| 20260901023516 | 58 | 315 | 2.0 | 4.0 | 0.00 | 0.00 | 0.00 | 83 | 1020.0 |
| 20260901022518 | 58 | 315 | 2.0 | 4.0 | 0.00 | 0.00 | 0.00 | 83 | 1019.9 |
| 20260901021516 | 58 | 315 | 2.0 | 4.0 | 0.00 | 0.00 | 0.00 | 82 | 1020.0 |
| 20260901020517 | 59 | 315 | 1.0 | 3.0 | 0.00 | 0.01 | 0.00 | 82 | 1020.0 |
| 20260901015517 | 59 | 315 | 2.0 | 4.0 | 0.00 | 0.02 | 0.00 | 82 | 1020.1 |
| 20260901014539 | 59 | 315 | 2.0 | 4.0 | 0.00 | 0.02 | 0.00 | 81 | 1020.0 |
| 20260901013516 | 59 | 315 | 2.0 | 4.0 | 0.00 | 0.02 | 0.00 | 81 | 1019.9 |
| 20260901012516 | 59 | 315 | 2.0 | 4.0 | 0.00 | 0.16 | 0.00 | 81 | 1019.9 |
| 20260901011516 | 59 | 293 | 2.0 | 4.0 | 0.00 | 0.17 | 0.00 | 81 | 1019.9 |
| 20260901010537 | 59 | 315 | 2.0 | 6.0 | 0.00 | 0.17 | 0.00 | 81 | 1019.8 |
| 20260901005516 | 59 | 293 | 2.0 | 5.0 | 0.00 | 0.17 | 0.00 | 81 | 1019.8 |
| 20260901004517 | 59 | 315 | 3.0 | 5.0 | 0.00 | 0.17 | 0.00 | 81 | 1019.8 |
| 20260901003516 | 59 | 293 | 2.0 | 5.0 | 0.00 | 0.17 | 0.00 | 81 | 1019.7 |
| 20260901002517 | 59 | 315 | 1.0 | 4.0 | 0.00 | 0.17 | 0.00 | 80 | 1019.7 |
| 20260901001516 | 59 | 293 | 2.0 | 5.0 | 0.00 | 0.17 | 0.00 | 80 | 1019.7 |
| 20260901000515 | 59 | 293 | 2.0 | 4.0 | 0.00 | 0.17 | 0.00 | 79 | 1019.7 |
| 20260831235516 | 60 | 293 | 2.0 | 4.0 | 0.00 | 0.17 | 0.00 | 78 | 1019.7 |
| 20260831234516 | 60 | 293 | 1.0 | 4.0 | 0.00 | 0.17 | 0.00 | 77 | 1019.7 |
| 20260831233535 | 60 | 293 | 2.0 | 5.0 | 0.00 | 0.23 | 0.00 | 77 | 1019.7 |
| 20260831232537 | 60 | 293 | 2.0 | 5.0 | 0.00 | 0.46 | 0.00 | 76 | 1019.7 |
| 20260831231516 | 61 | 315 | 2.0 | 5.0 | 0.00 | 0.57 | 0.00 | 76 | 1019.7 |
| 20260831230516 | 61 | 315 | 2.0 | 5.0 | 0.00 | 0.72 | 0.00 | 75 | 1019.7 |
| 20260831225515 | 61 | 315 | 3.0 | 6.0 | 0.00 | 0.75 | 0.74 | 75 | 1019.5 |
| 20260831224517 | 61 | 315 | 3.0 | 6.0 | 0.00 | 0.75 | 0.74 | 75 | 1019.6 |
| 20260831223515 | 61 | 315 | 3.0 | 8.0 | 0.00 | 0.75 | 0.74 | 74 | 1019.6 |
| 20260831222515 | 62 | 315 | 5.0 | 8.0 | 0.00 | 0.75 | 0.74 | 74 | 1019.5 |
| 20260831221517 | 62 | 293 | 3.0 | 7.0 | 0.00 | 0.75 | 0.74 | 74 | 1019.4 |
| 20260831220515 | 62 | 293 | 3.0 | 9.0 | 0.00 | 0.75 | 0.74 | 74 | 1019.5 |
| 20260831215516 | 62 | 315 | 4.0 | 7.0 | 0.00 | 0.75 | 0.74 | 73 | 1019.3 |
| 20260831214515 | 62 | 315 | 5.0 | 11.0 | 0.00 | 0.75 | 0.74 | 73 | 1019.2 |
| 20260831213515 | 63 | 315 | 4.0 | 9.0 | 0.00 | 0.75 | 0.74 | 73 | 1019.2 |
| 20260831212515 | 63 | 315 | 3.0 | 7.0 | 0.00 | 0.75 | 0.74 | 72 | 1019.1 |
| 20260831211515 | 63 | 315 | 3.0 | 8.0 | 0.00 | 0.75 | 0.74 | 72 | 1019.0 |
| 20260831210537 | 63 | 315 | 3.0 | 7.0 | 0.00 | 0.75 | 0.74 | 71 | 1018.9 |
| 20260831205515 | 64 | 315 | 4.0 | 8.0 | 0.00 | 0.75 | 0.74 | 70 | 1018.9 |
| 20260831204517 | 64 | 315 | 4.0 | 11.0 | 0.00 | 0.75 | 0.74 | 70 | 1018.8 |
| 20260831203515 | 64 | 315 | 4.0 | 8.0 | 0.00 | 0.75 | 0.74 | 70 | 1018.6 |
| 20260831202537 | 64 | 315 | 3.0 | 7.0 | 0.00 | 0.75 | 0.74 | 69 | 1018.4 |
| 20260831201515 | 64 | 315 | 4.0 | 7.0 | 0.00 | 0.75 | 0.74 | 70 | 1018.3 |
| 20260831200515 | 65 | 293 | 3.0 | 6.0 | 0.00 | 0.75 | 0.74 | 70 | 1018.2 |
| 20260831195515 | 65 | 315 | 4.0 | 9.0 | 0.00 | 0.75 | 0.74 | 69 | 1018.2 |
| 20260831194517 | 65 | 315 | 4.0 | 8.0 | 0.00 | 0.75 | 0.74 | 69 | 1018.1 |
| 20260831193519 | 66 | 293 | 3.0 | 7.0 | 0.00 | 0.76 | 0.74 | 69 | 1018.0 |
| 20260831192517 | 66 | 315 | 4.0 | 11.0 | 0.00 | 0.79 | 0.74 | 68 | 1017.7 |
| 20260831191519 | 67 | 293 | 3.0 | 8.0 | 0.00 | 0.79 | 0.74 | 68 | 1017.4 |
| 20260831190520 | 68 | 315 | 3.0 | 8.0 | 0.00 | 0.79 | 0.74 | 67 | 1017.3 |
| 20260831185517 | 68 | 315 | 4.0 | 8.0 | 0.00 | 0.79 | 0.74 | 67 | 1017.2 |
| 20260831184535 | 69 | 315 | 4.0 | 9.0 | 0.00 | 0.79 | 0.74 | 67 | 1017.1 |
| 20260831183559 | 69 | 315 | 7.0 | 12.0 | 0.00 | 0.79 | 0.74 | 66 | 1016.8 |
| 20260831182517 | 70 | 315 | 4.0 | 14.0 | 0.00 | 0.79 | 0.74 | 65 | 1016.8 |
| 20260831181600 | 70 | 315 | 4.0 | 9.0 | 0.00 | 0.79 | 0.74 | 64 | 1016.6 |
| 20260831180517 | 71 | 315 | 5.0 | 10.0 | 0.00 | 0.79 | 0.74 | 63 | 1016.5 |
| 20260831175517 | 71 | 315 | 5.0 | 10.0 | 0.00 | 0.79 | 0.74 | 61 | 1016.4 |
| 20260831174517 | 71 | 315 | 5.0 | 11.0 | 0.00 | 0.79 | 0.74 | 61 | 1016.3 |
| 20260831173537 | 71 | 315 | 5.0 | 10.0 | 0.00 | 0.79 | 0.74 | 60 | 1016.2 |
| 20260831172517 | 72 | 293 | 5.0 | 11.0 | 0.00 | 0.79 | 0.74 | 60 | 1016.2 |
| 20260831171517 | 72 | 293 | 6.0 | 14.0 | 0.00 | 0.79 | 0.74 | 59 | 1016.0 |
| 20260831170517 | 72 | 293 | 5.0 | 12.0 | 0.00 | 0.79 | 0.74 | 61 | 1015.8 |
| 20260831165537 | 72 | 248 | 4.0 | 10.0 | 0.00 | 0.79 | 0.74 | 68 | 1015.8 |
| 20260831164517 | 73 | 248 | 6.0 | 14.0 | 0.00 | 0.79 | 0.74 | 68 | 1015.6 |
| 20260831163517 | 73 | 248 | 6.0 | 13.0 | 0.00 | 0.79 | 0.74 | 63 | 1015.5 |
| 20260831162517 | 73 | 248 | 6.0 | 14.0 | 0.00 | 0.79 | 0.74 | 66 | 1015.4 |
| 20260831161517 | 73 | 270 | 7.0 | 16.0 | 0.00 | 0.79 | 0.74 | 65 | 1015.3 |
| 20260831160517 | 73 | 248 | 7.0 | 14.0 | 0.00 | 0.79 | 0.74 | 67 | 1015.3 |
| 20260831155518 | 74 | 248 | 9.0 | 20.0 | 0.00 | 0.79 | 0.74 | 66 | 1015.2 |
| 20260831154520 | 74 | 270 | 7.0 | 19.0 | 0.00 | 0.79 | 0.74 | 68 | 1015.2 |
| 20260831153517 | 73 | 248 | 8.0 | 16.0 | 0.00 | 0.79 | 0.74 | 68 | 1015.0 |
| 20260831152518 | 74 | 248 | 8.0 | 14.0 | 0.00 | 0.79 | 0.74 | 66 | 1014.9 |
| 20260831151517 | 75 | 248 | 10.0 | 17.0 | 0.00 | 0.79 | 0.74 | 64 | 1014.8 |
| 20260831150517 | 76 | 225 | 9.0 | 19.0 | 0.00 | 0.79 | 0.74 | 59 | 1014.8 |
| 20260831145537 | 76 | 248 | 9.0 | 18.0 | 0.00 | 0.79 | 0.74 | 57 | 1014.7 |
| 20260831144517 | 77 | 270 | 6.0 | 14.0 | 0.00 | 0.79 | 0.74 | 57 | 1014.6 |
| 20260831143517 | 76 | 248 | 8.0 | 15.0 | 0.00 | 0.79 | 0.74 | 56 | 1014.6 |
| 20260831142517 | 75 | 248 | 9.0 | 14.0 | 0.00 | 0.79 | 0.74 | 58 | 1014.4 |
| 20260831141518 | 75 | 248 | 8.0 | 16.0 | 0.00 | 0.79 | 0.74 | 58 | 1014.4 |
| 20260831140537 | 75 | 293 | 4.0 | 12.0 | 0.00 | 0.79 | 0.74 | 57 | 1014.3 |